SPACEBEE-13 (46310 NORAD) Tracking and Keplerian Element Data

This shows tracking and keplerian element data for the satellite.

Feedback or suggestion? Click here.




ElementValue
Catalog46310
NameSPACEBEE-13
Epoch Orbit311
Epoch Day268.14217895
Epoch Year2020
RAAN340.9057
Inclination97.5181
Eccentricity0.0001596
Argument of Perigee127.0513
Mean Anonmoly233.0863
Mean Motion15.10665838
Decay Rate1.846E-05
L11 46310U 20061AQ 20268.14217895 .00001846 00000-0 11538-3 0 9998
L22 46310 97.5181 340.9057 0001596 127.0513 233.0863 15.10665838 3118

Live tracking and technical data element details for SPACEBEE-13 (NORAD 46310). SPACEBEE-13 can be tracked NOW for your location showing map with azimuth and elevation plus other details from your city location.

Track the satellite on the map from your city or location and see movement details for azimuth, elevation, latitude, longitude, range, height, and movement on the map or in text.







IsCatalogInMostPopularTable: catalog: 46310, numindb: 1
Update: records affected: 1



GetName: 46310 SPACEBEE-13

Hit Count: updated at: Mon, 28 Sep 2020 21:37:11 GMT